Prescott, AZ

7:23 PM MST on November 13, 2019 (GMT -0700)
Love

Weather History for KPRC - September, 2019

Change the Weather History Date:

Thursday, September 19, 2019

  Actual Average Record
Temperature  
Mean Temperature 67 °F 67 °F  
Max Temperature 80 °F 81 °F 94 °F (2010)
Min Temperature 54 °F 52 °F 33 °F (1971)
Degree Days  
Heating Degree Days 0    
Month to date heating degree days 0  
Since 1 July heating degree days 0  
Cooling Degree Days 2    
Month to date cooling degree days 155  
Year to date cooling degree days 1130  
Growing Degree Days 17 (Base 50)    
Moisture  
Dew Point 34 °F    
Average Humidity 29    
Maximum Humidity 55    
Minimum Humidity 16    
Precipitation  
Precipitation 0.00 in 0.05 in 0.46 in (2004)
Month to date precipitation 1.39 1.02  
Year to date precipitation 9.50 10.68  
Sea Level Pressure  
Sea Level Pressure 29.76 in    
Wind  
Wind Speed 9 mph ()    
Max Wind Speed 24 mph    
Max Gust Speed 32 mph    
Visibility 10.0 miles    
Events      
T = Trace of Precipitation, MM = Missing Value Source: Averaged Metar Reports

Daily Weather History Graph

Daily Weather History Graph

Search for Another Location

Airport or City:

Astronomy

Sep. 19, 2019 Rise Set
Actual Time 6:15 AM MST 6:30 PM MST
Civil Twilight 5:50 AM MST 6:56 PM MST
Nautical Twilight 5:20 AM MST 7:25 PM MST
Astronomical Twilight 4:50 AM MST 7:55 PM MST
Moon 9:55 PM MST (9/19) 11:10 AM MST (9/19)
Length of Visible Light 13h 05m
Length of Day
12h 15m
Waning Gibbous, 73% of the Moon is Illuminated
Sep 19
Waning Gibbous
Sep 21
Last Quarter
Sep 28
New
Oct 5
First Quarter
Oct 13
Full

Hourly Weather History & Observations

Time (MST) Temp. Dew Point Humidity Pressure Visibility Wind Dir Wind Speed Gust Speed Precip Events Conditions
12:53 AM 68.0 °F 39.0 °F 35% 29.79 in 10.0 mi South 10.4 mph - N/A   Clear
1:53 AM 64.0 °F 37.0 °F 37% 29.80 in 10.0 mi SSE 6.9 mph - N/A   Clear
2:53 AM 60.1 °F 35.1 °F 39% 29.80 in 10.0 mi SW 6.9 mph - N/A   Clear
3:53 AM 61.0 °F 34.0 °F 36% 29.78 in 10.0 mi SW 9.2 mph - N/A   Clear
4:53 AM 57.9 °F 36.0 °F 44% 29.80 in 10.0 mi SW 9.2 mph - N/A   Clear
5:53 AM 54.0 °F 37.9 °F 55% 29.81 in 10.0 mi SSW 5.8 mph - N/A   Clear
6:53 AM 55.9 °F 39.9 °F 55% 29.83 in 10.0 mi SSW 5.8 mph - N/A   Clear
7:53 AM 64.9 °F 37.0 °F 36% 29.82 in 10.0 mi SSW 3.5 mph - N/A   Clear
8:53 AM 72.0 °F 37.0 °F 28% 29.81 in 10.0 mi South 5.8 mph - N/A   Clear
9:53 AM 75.0 °F 42.1 °F 31% 29.79 in 10.0 mi South 16.1 mph 24.2 mph N/A   Clear
10:53 AM 77.0 °F 37.9 °F 24% 29.78 in 10.0 mi SSW 15.0 mph 24.2 mph N/A   Clear
11:53 AM 79.0 °F 37.9 °F 23% 29.75 in 10.0 mi South 17.3 mph 29.9 mph N/A   Clear
12:53 PM 80.1 °F 36.0 °F 20% 29.73 in 10.0 mi SSW 20.7 mph 29.9 mph N/A   Clear
1:53 PM 80.1 °F 39.9 °F 24% 29.73 in 10.0 mi South 12.7 mph 21.9 mph N/A   Clear
2:53 PM 80.1 °F 36.0 °F 20% 29.72 in 10.0 mi SSW 19.6 mph 29.9 mph N/A   Clear
3:53 PM 79.0 °F 35.1 °F 20% 29.71 in 10.0 mi SSW 16.1 mph 26.5 mph N/A   Clear
4:53 PM 77.0 °F 36.0 °F 23% 29.71 in 10.0 mi SSW 17.3 mph 25.3 mph N/A   Clear
5:53 PM 75.0 °F 33.1 °F 22% 29.72 in 10.0 mi South 16.1 mph 23.0 mph N/A   Clear
6:53 PM 72.0 °F 26.1 °F 18% 29.73 in 10.0 mi South 10.4 mph 19.6 mph N/A   Clear
7:53 PM 69.1 °F 21.0 °F 16% 29.72 in 10.0 mi South 4.6 mph - N/A   Clear
8:53 PM 66.9 °F 23.0 °F 19% 29.70 in 10.0 mi SSE 5.8 mph - N/A   Clear
9:53 PM 64.9 °F 21.9 °F 19% 29.70 in 10.0 mi SSE 4.6 mph - N/A   Clear
10:53 PM 61.0 °F 24.1 °F 24% 29.71 in 10.0 mi SE 3.5 mph - N/A   Clear
11:53 PM 57.9 °F 27.0 °F 31% 29.71 in 10.0 mi SSE 3.5 mph - N/A   Clear